Kansas City, MO

6:06 AM CDT on July 26, 2016 (GMT -0500)
Kansas City International

Weather History for KMCI - June, 2013

Change the Weather History Date:

Tuesday, June 11, 2013

  Actual Average Record
Temperature  
Mean Temperature 81 °F 72 °F  
Max Temperature 91 °F 82 °F 104 °F (1953)
Min Temperature 71 °F 62 °F 52 °F (1995)
Degree Days  
Heating Degree Days 0 0  
Month to date heating degree days 17 7  
Since 1 June heating degree days 17 7  
Since 1 July heating degree days 5202 5131  
Cooling Degree Days 16 8  
Month to date cooling degree days 34 72  
Year to date cooling degree days 139 188  
Since 1 June cooling degree days 34 72  
Growing Degree Days 31 (Base 50)    
Moisture  
Dew Point 64 °F    
Average Humidity 63    
Maximum Humidity 84    
Minimum Humidity 41    
Precipitation  
Precipitation 0.12 in 0.17 in 1.80 in (1970)
Month to date precipitation 1.56 1.96  
Year to date precipitation 16.49 15.79  
Snow  
Snow 0.00 in 0.00 in 0.00 in ()
Month to date snowfall 0.0 0.0  
Since 1 June snowfall 0.0 0.0  
Since 1 July snowfall 31.8 18.8  
Snow Depth 0.00 in    
Sea Level Pressure  
Sea Level Pressure 29.82 in    
Wind  
Wind Speed 14 mph (SSW)    
Max Wind Speed 23 mph    
Max Gust Speed 32 mph    
Visibility 10 miles    
Events Rain , Thunderstorm    
T = Trace of Precipitation, MM = Missing Value Source: NWS Daily Summary

Daily Weather History Graph

Daily Weather History Graph

Search for Another Location

Airport or City:

Trip Planner

Search our weather history database for the weather conditions in past years. The results will help you decide how hot, cold, wet, or windy it might be!

Date:

Astronomy

Jun. 11, 2013 Rise Set
Actual Time 5:51 AM CDT 8:45 PM CDT
Civil Twilight 5:19 AM CDT 9:17 PM CDT
Nautical Twilight 4:39 AM CDT 9:58 PM CDT
Astronomical Twilight 3:52 AM CDT 10:45 PM CDT
Moon 8:35 AM CDT (6/11) 10:50 PM CDT (6/11)
Length of Visible Light 15h 58m
Length of Day
14h 53m
Waxing Crescent, 8% of the Moon is Illuminated
Jun 11
Waxing Crescent
Jun 16
First Quarter
Jun 23
Full
Jun 29
Last Quarter
Jul 8
New

Hourly Weather History & Observations

Time (CDT) Temp. Heat Index Dew Point Humidity Pressure Visibility Wind Dir Wind Speed Gust Speed Precip Events Conditions
12:53 AM 72.0 °F - 61.0 °F 68% 29.83 in 10.0 mi SE 9.2 mph - N/A   Clear
1:53 AM 73.9 °F - 61.0 °F 64% 29.81 in 10.0 mi SSE 12.7 mph - N/A   Partly Cloudy
2:53 AM 73.0 °F - 62.1 °F 68% 29.81 in 10.0 mi SSE 10.4 mph - N/A   Partly Cloudy
3:53 AM 71.6 °F - 62.6 °F 73% 29.80 in 10.0 mi SSE 10.4 mph - N/A   Partly Cloudy
4:22 AM 71.6 °F - 64.4 °F 78% 29.83 in 10.0 mi South 9.2 mph - N/A Thunderstorm Thunderstorm
4:53 AM 71.1 °F - 64.9 °F 81% 29.80 in 10.0 mi South 8.1 mph - 0.00 in Rain , Thunderstorm Light Thunderstorms and Rain
5:04 AM 71.6 °F - 64.4 °F 78% 29.84 in 10.0 mi SSW 6.9 mph - 0.00 in Rain , Thunderstorm Light Thunderstorms and Rain
5:53 AM 73.0 °F - 68.0 °F 84% 29.81 in 10.0 mi SW 18.4 mph 23.0 mph 0.11 in Rain , Thunderstorm Light Thunderstorms and Rain
6:11 AM 73.4 °F - 66.2 °F 78% 29.86 in 10.0 mi SW 13.8 mph - 0.01 in Rain Light Rain
6:53 AM 73.0 °F - 66.9 °F 81% 29.82 in 10.0 mi SSW 17.3 mph - 0.01 in   Overcast
7:53 AM 75.0 °F - 66.0 °F 73% 29.81 in 10.0 mi SSW 13.8 mph - N/A   Overcast
8:53 AM 77.0 °F - 66.0 °F 69% 29.81 in 10.0 mi SSW 18.4 mph - N/A   Mostly Cloudy
9:53 AM 78.1 °F - 64.0 °F 62% 29.82 in 10.0 mi SSW 15.0 mph 24.2 mph N/A   Mostly Cloudy
10:53 AM 79.0 °F - 64.9 °F 62% 29.87 in 10.0 mi WSW 5.8 mph - N/A   Overcast
11:53 AM 82.9 °F 85.0 °F 66.0 °F 56% 29.83 in 10.0 mi SSW 18.4 mph 25.3 mph N/A   Mostly Cloudy
12:53 PM 88.0 °F 89.3 °F 64.0 °F 45% 29.85 in 10.0 mi SW 12.7 mph 24.2 mph N/A   Mostly Cloudy
1:53 PM 87.1 °F 87.5 °F 62.1 °F 43% 29.85 in 10.0 mi SSW 17.3 mph 24.2 mph N/A   Mostly Cloudy
2:53 PM 87.1 °F 89.2 °F 66.0 °F 49% 29.85 in 10.0 mi SSW 10.4 mph - N/A   Mostly Cloudy
3:53 PM 89.1 °F 90.3 °F 64.0 °F 43% 29.83 in 10.0 mi SSW 16.1 mph 20.7 mph N/A   Mostly Cloudy
4:53 PM 89.1 °F 90.0 °F 63.0 °F 42% 29.82 in 10.0 mi SSW 11.5 mph 21.9 mph N/A   Mostly Cloudy
5:53 PM 88.0 °F 89.6 °F 64.9 °F 46% 29.80 in 10.0 mi SSW 12.7 mph - N/A   Mostly Cloudy
6:53 PM 87.1 °F 88.9 °F 64.9 °F 48% 29.78 in 10.0 mi SSW 13.8 mph 20.7 mph N/A   Scattered Clouds
7:53 PM 86.0 °F 86.8 °F 63.0 °F 46% 29.75 in 10.0 mi South 19.6 mph 28.8 mph N/A   Scattered Clouds
8:53 PM 84.0 °F 84.9 °F 63.0 °F 49% 29.76 in 10.0 mi South 16.1 mph - N/A   Scattered Clouds
9:53 PM 82.9 °F 84.0 °F 63.0 °F 51% 29.78 in 10.0 mi South 13.8 mph 21.9 mph N/A   Scattered Clouds
10:53 PM 82.0 °F 84.1 °F 66.0 °F 58% 29.80 in 10.0 mi South 13.8 mph 24.2 mph N/A   Mostly Cloudy
11:53 PM 81.0 °F 83.8 °F 68.0 °F 65% 29.80 in 10.0 mi South 18.4 mph 26.5 mph N/A   Scattered Clouds